• Join FlightAware (Why Join?)
  • Login
  • US Flag 
09:31PM EST


 

Airport Tracker/Info


-or-


 

Live Flight TrackerFlight Track Log ✈ ASQ5138 ✈ 22-Apr-2014 ✈ KPIT - KDTW

Flight Track Log - Related Links

Times and Time Zones

All times are in EDT time to prevent confusion due to time zone crossing. See the ASQ5138 flight status page for this flight to view local times or setup timezone preferences in your user account.

Time Position Orientation Groundspeed Altitude Reporting Facility
EDT Latitude Longitude Course Direction KTS MPH feet Rate Location/Type
10:29AM 40.5053 -80.3247 285° West 185 213 3,200  Level Cleveland Center
10:30AM 40.5147 -80.4053 279° West 226 260 5,400 2,592 Climbing Cleveland Center
10:31AM 40.5389 -80.5114 287° West 250 288 8,600 2,592 Climbing Cleveland Center
10:32AM 40.5594 -80.6019 287° West 259 298 10,800 1,839 Climbing Cleveland Center
10:33AM 40.5819 -80.7047 286° West 290 334 12,400 1,742 Climbing Cleveland Center
10:34AM 40.6195 -80.8642 285° West  Level FlightAware Approximate
10:34AM 40.6081 -80.8175 287° West 316 364 14,400  Level Cleveland Center
10:35AM 40.6336 -80.9311 287° West 322 371 16,400 2,226 Climbing Cleveland Center
10:36AM 40.6631 -81.0689 286° West 332 382 19,000 2,081 Climbing Cleveland Center
10:37AM 40.6886 -81.1883 286° West 333 383 20,700 1,452 Climbing Cleveland Center
10:38AM 40.7158 -81.3097 287° West 337 388 22,000 629 Climbing Cleveland Center
10:39AM 40.7481 -81.4392 288° West 364 419 22,000  Level Cleveland Center
10:40AM 40.8292 -81.5347 318° Northwest 386 444 22,000  Level Cleveland Center
10:41AM 40.9028 -81.6214 318° Northwest 358 412 22,000  Level Cleveland Center
10:42AM 40.9733 -81.7039 319° Northwest 338 389 22,000  Level Cleveland Center
10:43AM 41.0403 -81.7825 318° Northwest 321 369 22,000  Level Cleveland Center
10:44AM 41.1181 -81.8756 318° Northwest 319 367 22,000  Level Cleveland Center
10:45AM 41.1792 -81.9481 318° Northwest 318 366 22,000  Level Cleveland Center
10:46AM 41.2419 -82.0217 319° Northwest 304 350 22,000  Level Cleveland Center
10:47AM 41.3031 -82.0961 318° Northwest 301 346 22,000  Level Cleveland Center
10:48AM 41.3775 -82.1714 323° Northwest 303 349 22,000  Level Cleveland Center
10:49AM 41.4736 -82.1822 355° North 339 390 22,000 -387 Level Cleveland Center
10:50AM 41.5594 -82.2136 345° North 329 379 21,200 -1,258 Descending Cleveland Center
10:51AM 41.5878 -82.3092 292° West 280 322 19,400 -1,790 Descending Cleveland Center
10:52AM 41.6192 -82.4122 292° West 294 338 17,500 -1,765 Descending Cleveland Center
10:53AM 41.6408 -82.4922 290° West 291 335 16,400 -1,645 Descending Cleveland Center
10:54AM 41.6514 -82.5219 295° West 291 335 15,800 -1,553 Descending Cleveland Center
10:55AM 41.6789 -82.6161 291° West 276 318 14,200 -1,613 Descending Cleveland Center
10:56AM 41.7064 -82.7156 290° West 264 304 12,600 -1,065 Descending Cleveland Center
10:57AM 41.7389 -82.7942 299° West 266 306 12,000 -738 Descending Cleveland Center
10:58AM 41.8036 -82.8767 316° Northwest 268 308 11,000 -1,190 Descending Cleveland Center
10:59AM 41.8308 -82.9586 294° West 255 293 9,600 -1,327 Descending Cleveland Center
11:00AM 41.8581 -83.0408 294° West 255 293 8,500 -1,108 Descending Cleveland Center
11:00AM 41.8636 -83.0497 310° West 256 295 8,400 -984 Descending Cleveland Center
11:01AM 41.8872 -83.1261 293° West 257 296 7,500 -968 Descending Cleveland Center
11:01AM 41.8917 -83.1372 298° West 256 295 7,400 -1,082 Descending Cleveland Center
11:02AM 41.9158 -83.2197 292° West 246 283 6,400 -1,065 Descending Cleveland Center
11:02AM 41.9222 -83.2308 308° West 251 289 6,300 -984 Descending Cleveland Center
11:03AM 41.9428 -83.3019 291° West 245 282 5,400 -968 Descending Cleveland Center
11:03AM 41.9486 -83.3169 298° West 249 287 5,300 -984 Descending Cleveland Center
11:04AM 41.9678 -83.3869 290° West 242 278 4,400 -1,258 Descending Cleveland Center
11:04AM 41.9750 -83.4069 296° West 245 282 4,000 -1,279 Descending Cleveland Center
11:05AM 41.9992 -83.4672 298° West 219 252 3,100 -968 Descending Cleveland Center
11:05AM 42.0119 -83.4689 354° North 242 278 3,000 -82 Descending Cleveland Center
11:06AM 42.0589 -83.4533 14° North 170 196 3,000  Level Cleveland Center
11:07AM 42.0967 -83.4250 29° Northeast 175 201 3,000  Level Cleveland Center
11:07AM 42.0997 -83.4222 34° Northeast 181 208 3,000 -857 Level Cleveland Center
11:08AM 42.1300 -83.4014 27° Northeast 156 180 2,300 -968 Descending Cleveland Center
11:08AM 42.1400 -83.3933 31° Northeast 172 198 2,000 -698 Descending Cleveland Center
11:09AM 42.1731 -83.3683 29° Northeast 151 174 1,300 -791 Descending Cleveland Center
11:10AM 42.1947 -83.3514 30° Northeast 138 159 800 -484 Descending Cleveland Center
11:10AM 42.2108 -83.3397 28° Northeast 145 167 800  Level Cleveland Center